TITAN 3C TRANSTAGE DEB, 1964

Orbit data source: Space-Track

TITAN 3C TRANSTAGE DEB, 1964 is space debris in LEO originally from a launch on Fri, 15 Oct 1965 UTC launched from the Air Force Eastern Test Range (AFETR). Debris objects in space refer to the collection of defunct objects orbiting the Earth. Examples of debris include non-operational satellites, rocket bodies, and fragments generated from explosions, collisions, or faulty payload assembly.

Loading next visibility...
Identifier
1964, 1965-082GZ
Orbit
LEO
Last TLE update
19 hours ago
Origin
Manufacturer
Unknown
Mission
Spacecraft
Bus & Motor
Unknown
Mass
Unknown
Launch date (UTC)
1965-10-15 (60 years ago)
Launch vehicle
Unknown
Launch site
Air Force Eastern Test Range (AFETR)
Object type
Payload
Rocket body
Debris
Shape & HBR
Unknown
Radar Cross Section
Small (<0.1 m²)

Expand to show TLE details & history

TLE from 19 hours ago
0 TITAN 3C TRANSTAGE DEB
1 01964U 65082GZ  25133.55253507  .00000670  00000-0  22740-3 0  9998
2 01964  32.1924 213.7280 0179551  59.3982 302.4231 14.25253291 60577
Epoch: 2025-05-13T13:15Z
Definitive object data (Epoch: 2025-05-13T13:15:39.03Z)
Latitude
-0.00002°
Longitude
143.26572°
Altitude
738.832 km
Speed
7.523 km/s
True Right ascension
14h 14m 54s
True Declination
0° 00' 00"
Sunlit
Object was in full shadow at TLE epoch
Visualization TLE readout
Latitude
0.30772°
Longitude
-41.7019°
Altitude
854.978 km
Speed
7.402 km/s
Apparent Right ascension
03h 10m 00s
Apparent Declination
-19° 51' 45"
Sunlit
Object is in daylight
Visualization observer readout
Local Sidereal Time
17:03:18
Azimuth
58.761° ENE
Elevation
-58.541°
Doppler factor
1
Orbital elements
Apogee altitude
940.253 km
Perigee altitude
682.083 km
Semi-major axis
7,189.305 km
Eccentricity
0.0179551
Inclination
32.1924°
RAAN
213.728°
Arg. of periapsis
59.3982°
True anomaly
300.66547°
Mean anomaly
302.4231°
Eccentric anomaly
301.54638°
Mean motion
3.56051 °/min
BSTAR
0.0002274
Orbital period
101.11 mins
Loading maneuver chart data...
Loading SW <> Apogee altitude chart data...

TITAN 3C TRANSTAGE DEB Visibility forecast

Observer location: undefined°, undefined°

Span
Click to sort rows by Start time (UTC) header in descending order
Start Az.
Max El. time (UTC)
Max El. Az.
Max El.
End time (UTC)
End Az.
7 mins2025-05-14 09:41:24.460Z220.002° SW2025-05-14 09:45:24.460Z163.759° S22.961°2025-05-14 09:48:24.460Z118.166° SE
6 mins2025-05-14 11:29:24.460Z228.209° WSW2025-05-14 11:31:24.460Z190.571° SSW28.577°2025-05-14 11:35:24.460Z122.187° SE
7 mins2025-05-14 13:15:24.460Z239.239° WSW2025-05-14 13:18:24.460Z193.237° SSW22.398°2025-05-14 13:22:24.460Z142.218° SSE
|